[Date Prev][Date Next][Thread Prev][Thread Next][Date Index][Thread Index]
[jamsat-news:654] jas2info #55
=========================   最新情報   ==============================
        Last updated :Sat.4-Oct-97 21:50 (JST) #55
====================================================================
   
     衛星情報 FOシリーズの軌道要素、テレメトリ、QSOの状況等をま
   とめてみました.
  1)FO−29(ふじ3号)は10月4日(土)の18:27(JST)の
     パスではJAアナログモードで運用され、JARL発表のスケジュールに
     よるデジカートはまだ運用されていませんでした. 
    
  ■ 軌道要素1:「jamsatーkeps:622」より
                 SB KEPS @ AMSAT  $ORBS-276.N
                 2Line Orbital Elements 276.AMSAT
 HR AMSAT ORBITAL ELEMENTS FOR AMATEUR SATELLITES IN NASA FORMAT
 FROM WA5QGD FORT WORTH,TX October 3, 1997
 SEND SUBSCRIBE/UNSUBSCRIBE TO listserv@amsat.org ONLY
 BID: ORBS-276.N
      
  DECODE 2-LINE ELSETS WITH THE FOLLOWING KEY:
  1 AAAAAU 00  0  0 BBBBB.BBBBBBBB  .CCCCCCCC  00000-0  00000-0 0  DDDZ
  2 AAAAA EEE.EEEE FFF.FFFF GGGGGGG HHH.HHHH III.IIII JJ.JJJJJJJJKKKKKZ
  KEY: A-CATALOGNUM B-EPOCHTIME C-DECAY D-ELSETNUM E-INCLINATION F-RAAN
  G-ECCENTRICITY H-ARGPERIGEE I-MNANOM J-MNMOTION K-ORBITNUM Z-CHECKSUM
  TO ALL RADIO AMATEURS BT
  
  FO-29
  1 24278U 96046B   97275.09955093 -.00000016  00000-0  23006-4 0 01296
  2 24278 098.5301 301.6910 0350827 269.2057 086.8879 13.52633425055579
  ■ 軌道要素2:「jamsatーkeps:623」より
                SB KEPS @ AMSAT  $ORBS-276.O
                Orbital Elements  276.OSCAR
     HR AMSAT ORBITAL ELEMENTS FOR OSCAR SATELLITES
     FROM WA5QGD FORT WORTH,TX October 3, 1997
     SEND SUBSCRIBE/UNSUBSCRIBE TO listserv@amsat.org ONLY
     BID: ORBS-276.O
     TO ALL RADIO AMATEURS BT
  Satellite: FO-29
  Catalog number: 24278
  Epoch time:      97275.09955093
  Element set:    0129
  Inclination:      098.5301 deg
  RA of node:       301.6910 deg
  Eccentricity:    0.0350827
  Arg of perigee:   269.2057 deg
  Mean anomaly:     086.8879 deg
  Mean motion:   13.52633425 rev/day
  Decay rate:       -1.6e-07 rev/day^2
  Epoch rev:           05557
  Checksum:              339
 -----------------------------------------------------------
  1 )FO−29(ふじ3号)の 10月4日(土)のJAアナログモード
   CWで運用中の1分毎の連続ビーコン波にのって送信されるテレメトリ
   の一部分です.
   AS5588C  4OCT97
   JST 18:28 - 18:44
                                                      61 95 82 B0 96 97 93        
 HI HI A6 C7 90 DD 88 96 10 25 00 2C 6A 52 6F 61  5  2 B0 7F 97 94 96 96 92 
 HI HI A6 C7 90 DD 8E 96 10 0D 00 2C 79 4F 73 61 95 92 B0 71 97 94 96 97 93 
 HI HI A6 C7 90 D0 93 96 10 0D 00 2C 71 48 66 61 95 93 B0 6F 87 94 96 96 93 
 HI HI A6 C7 90 DD 99 96 6A 0D 00 2C 5F 44 74 61 94 9  B0 78 97 94 96 97 93 
 HI HI A6 C7 90 DD 9F 96 10 0D 00 2C 74 3F 65 61 95 93 B0 7B 97 94 96 96 93 
 HI HI A6 C7 90 DD 84 96 10 0D 00 2C 6  3C 66 61 94 93 B0 94 97 94 96 97 93 
 HI HI A6 C7 90 DD 8A 96 10 0D 00 2C 70 37 74 61 94 92 B0 7E 97 94 96 96 93 
 HI HI A6 C7 90 DD 6F 76 25 0D 00 2C 70 35 67 60 95 93 B0 72 97 94 96 97 93 
 HI HI A6 C7 81 DD 95 96 FF 0D 00 2C 60 31 6A 61 95 93 B0 75 97 94 96 97 93 
 HI HI A6 C7 81 DD 9A 96 10 8S 00 2C 74 31 67 61 95 63 B0 6E 97 94 96 97 93 
 HI HI A6 C7 90 DD 80 96 FF 0D 00 2C 57 2D 71 61 95 93 B0 74 97 94 96 97 93 
 HI HI A6 C7 96 0D 65 86 EE 0D 95 2C 7D 2D 73 61 95 92 B0 C0 97 94 96 97 93 
 HI HI A6 C7 97 DD  B 96 10 0D 85 2C 51 2C 67 61 95 93 B0 70 97 94 96 77 93 
 HI HI A6 C7 98 0D 65 96 10 0D 85 2C 80 2D 73 60 95 92 B0 70 97 94 96 87 93  
 HI HI A6 C7 9  DD 65 96 10 0D 85 2C 61 2D 69 61 95 92 B0 70 97 84 96 97 83 
 HI HI A6 C7 9  DD 9  96 10 0D 85 2C 5F 2  65 61 95 92 B0 73 97 84 96 97 93 
 
   2)上記3行目JAアナログCWテレメトリのアナログデータ換算値例 
 
    CWアナログテレメトリ換算値 FO−29(ふじ3号)	
				
  テレメトリ     内   容	換算値	       単 位
  3C	磁気センサーZ軸=	59313.708	[ nT ]
  3D	磁気センサX軸	=	38725.484	[ nT ]
  4A	太陽電池発生電流=	 1127.5 	[ mA ]
  4B	B充放電電流	=	  -98.8	        [ mA ]
  4C	B端子電圧	=	   16.0    	[ V ]
  4D	B中間端子電圧	= 	    7.0	        [ V ]
  5A	バス電圧	=          17.3         [ V ]
  5B	JTA送信電力	=	  636.4    	[ mW ]
  5C 	構体温度1	=      	   23.2    	[ ℃ ]
  5D	構体温度2	=	   24.4    	[ ℃ ]
  6A	構体温度3	=	   23.6    	[ ℃ ]
  6B	構体温度4	=	   23.2    	[ ℃ ] 
  6C	Bセル温度	=	   24.8    	[ ℃ ]
     
 =====================================================================
 3)FO−29(JAS−2)テレメトリの自動解読について「jamsat-bb:2922」に
     JE9PEL局脇田さんが投稿されていましたので転載させて頂きました.また
     jamsat-bb:2923」にはJJ1WTK局坂本さんのアドバイスがありましたがあま
     りにも長くなるので割愛させて頂きました.
  =======================================================================
  FO-29(JAS-2) パケットテレメトリの自動解読(例) (for Lotus1-2-3 R5J)
 =======================================================================
                          ( by JE9PEL/1  脇田)
  ● これは、表計算ソフト「Lotus 1-2-3」(バージョンR5J以上)を用いて、
    衛星FO-29(JAS-2)のパケットテレメトリを自動解読した出力例です。
  ● 衛星FO-29から受信したパケットテレメトリの16進数データを行ごとに
    2桁ずつ、このワークシートの第C列(16進数)に縦に手入力します。
  ● 入力した2桁の16進数の数値は、自動的に10進数と2進数に変換されて
    所定の換算式により解読された後、その結果が自動的に表示されます。
  ● この、FO-29のパケットテレメトリを自動解読し出力するための公開版
    のワークシートは、次のJAMSATサーバーに収録してあります。
    ファイル名は、tlmconv.wk4 を圧縮した tlmconv.lzh です。
      http://www.jamsat.or.jp/anonftp/software/win95/fo29/
      ftp://ftp.jamsat.or.jp/pub/software/win95/fo29/
     (例)  [1997年9月17日(水) 9:56JST受信]
       +---------------------------------------------+
          8J1JCS>BEACON [09/17/97  9:56:47] <UI C>:
          JAS-2    '97/09/17 00:47:31
          9C 03 63 08 00 24 00 00 00 00
          00 00 AA BF CD 67 60 92 90 B0
          AA 52 A8 01 DC 81 8A 89 86 88
          8J1JCS>BEACON [09/17/97  9:56:48] <UI C>:
          55 02 00 09 00 80 FB 40 00 00
          4A 53 39 52 5B 96 99 88 7C 82
          00 00 00 79 8B B3 F7 00 00 00
       +---------------------------------------------+
 [2進数変換結果]
      Fr. No. 16進数 10進数   2進数  bit7  b6  b5  b4  b3  b2  b1  b0
      0   00    9c     156  10011100    1   0   0   1   1   1   0   0
      0   01    03       3        11    0   0   0   0   0   0   1   1
      0   02    63      99   1100011    0   1   1   0   0   0   1   1
      0   03    08       8      1000    0   0   0   0   1   0   0   0
      0   04    00       0         0    0   0   0   0   0   0   0   0
      0   05    24      36    100100    0   0   1   0   0   1   0   0
      0   06    00       0         0    0   0   0   0   0   0   0   0
      0   07    00       0         0    0   0   0   0   0   0   0   0
      0   08    00       0         0    0   0   0   0   0   0   0   0
      0   09    00       0         0    0   0   0   0   0   0   0   0
      0   10    00       0         0    0   0   0   0   0   0   0   0
      0   11    00       0         0    0   0   0   0   0   0   0   0
      0   12    aa     170  10101010    1   0   1   0   1   0   1   0
      0   13    bf     191  10111111    1   0   1   1   1   1   1   1
      0   14    cd     205  11001101    1   1   0   0   1   1   0   1
      0   15    67     103   1100111    0   1   1   0   0   1   1   1
      0   16    60      96   1100000    0   1   1   0   0   0   0   0
      0   17    92     146  10010010    1   0   0   1   0   0   1   0
      0   18    90     144  10010000    1   0   0   1   0   0   0   0
      0   19    b0     176  10110000    1   0   1   1   0   0   0   0
     *途中省略
 [解読結果(一部抜粋)]
 《フレーム0》
 (システムステータス)
   No.00 JTD ON                           01 太陽センサー ON
         JTA OFF                             地磁気センサー ON
         パケット 1200bps
         SRAM ON   DCM ON
         メインリレー OFF
         フレーム 0
      02 バッテリロジック トリクル       03 デジタル送信機 ---
         バッテリ充電モード トリクル         デジタルトーカモード OFF
         PCUレベル-1                 パケットモード データ収集
         PCUオート                  パケットモード ---
         UVCレベル-2                 データ再生モード ---
         UVC ON                   データ収集モード ---
      14 衛星時刻 11271014 [sec] (換算表)
 (アナログステータス)                                     [N:10進数]
      15 太陽電池発生電流         1.009812 [A]   (I=0.009765*N)
      16 バッテリ充放電電流          0.1184 [A]   (I=-(2-N*0.0196))
      17 バッテリ端子電圧         15.71106 [V]   (V=0.10761*N )
      18 バッテリ中間端子電圧        6.93648 [V]   (V=0.04817*N )
      19 バス電圧           17.25504 [V]   (V=0.09804*N )
      20 +5V安定化電圧           5.0626 [V]   (V=0.02978*N )
      21 −5V安定化電圧         -4.88392 [V]   (V=-0.05956*N)
      22 +10V安定化電圧        10.060008 [V]   (V=0.059881*N)
      23 JTA出力電力          -91.5866 [mW]  (Pw=6.4997*N-98.0863)
      24 JTD出力電力   1568.2669856167 [mW]  (Pw=10^((0.04586*N+
                                                    21.865)/10)
      25 バッテリセル温度        31.782625 [C]   (T=-0.388375*N+81.883)
      26 構体温度(1)            28.28725 [C]   (T=-0.388375*N+81.883)
      27 構体温度(2)           28.675625 [C]   (T=-0.388375*N+81.883)
      28 構体温度(3)            29.84075 [C]   (T=-0.388375*N+81.883)
      29 構体温度(4)              29.064 [C]   (T=-0.388375*N+81.883)
 《フレーム1》
 (システムステータス)
   No.00 CWテレメトリ ON
         フレーム 1
 (アナログステータス)
      11 スピン周期                10597 [msec](換算表)
      12 地磁気センサーX軸        27941.172 [nT]  (nT=N*490.196)
      13 地磁気センサーZ軸        40196.072 [nT]  (nT=N*490.196)
      14 太陽角                1011011 [code](換算表−10度)
      18 太陽電池パネル温度(1)      -2.46528 [C]   (T=2.26778*N-283.67)
      19 太陽電池パネル温度(2)       11.1414 [C]   (T=2.26778*N-283.67)
      23 JTD Tr 温度        34.889625 [C]   (T=-0.388375*N+81.883)
      24 太陽電池パネル温度(3)      31.55142 [C]   (T=2.26778*N-283.67)
  参考   http://www.jarl.or.jp/Japanese/3_Fuji/jasmenu.htm
  補足   このワークシート「tlmconv.wk4」は、Windows95上で表計算ソフトの
     「Lotus 1-2-3」(バージョンR5J)を用いて作成したので、拡張子はwk4
       となっています。どなたか、Windows3.1上の「Lotus」でもこのワーク
      シートが開けるかどうか実験報告をいただけると幸いに思います。
  ============================================
  Name : JE9PEL/1 脇田
  Mail : JE9PEL@jamsat.or.jp
  URL  : http://www.asahi-net.or.jp/~EI7M-WKT/
  QTH  : Yokohama, Japan
  Date : Sep.20 '97
  ============================================
  * JH6MME局のEXCELによる換算例の一部
	JE9PEL/1局の上記 JDテレメトリの
                アナログデータ換算値例  FO-29(ふじ3号)				
				
